Date String (YYYY-MM-DD hh:mm:ss) UTC,Instrument flags,Ambient pressure (hPa),Sample flow (lpm),Bypass flow (lpm),Sample temperature (°C),Ambient temperature (°C),ASC tube jacket temperature (°C),LED temperature (°C),Box temperature (°C),Sample RH (%),Span deviation,Mass concentration (μg/m³),Mass concentration (μg/m³),Mass concentration (μg/m³)
DateTimeUTC,F1_M11,P_M11,Q1_M11,Q2_M11,T1_M11,T2_M11,T3_M11,T4_M11,T5_M11,U1_M11,ZSPAN_M11,X0_M11,X2_M11,X1_M11
2021-10-09 05:00:00,,0823.1,5.00,0.00,29.6,28.3,00.0,38.8,31.3,19.7,0000.0,0008.36,0003.12,0002.35
2021-10-09 05:01:00,,0823.1,4.99,0.00,29.6,28.4,00.0,38.8,31.4,19.9,0000.0,0008.99,0003.19,0002.39
2021-10-09 05:02:00,,0823.1,5.01,0.00,29.6,28.5,00.0,38.8,31.4,19.7,0000.0,0008.79,0003.22,0002.44
2021-10-09 05:03:00,,0823.1,4.99,0.00,29.6,28.6,00.0,38.8,31.4,19.6,0000.0,0009.02,0003.25,0002.46
2021-10-09 05:04:00,,0823.1,5.00,0.00,29.7,28.7,00.0,38.8,31.5,19.5,0000.0,0009.13,0003.24,0002.49
2021-10-09 05:05:00,,0823.2,4.99,0.00,29.7,28.7,00.0,38.8,31.5,19.4,0000.0,0009.14,0003.28,0002.52
2021-10-09 05:06:00,,0823.1,5.01,0.00,29.7,28.8,00.0,38.8,31.5,19.4,0000.0,0009.15,0003.33,0002.56
2021-10-09 05:07:00,,0823.2,4.99,0.00,29.7,28.8,00.0,38.8,31.5,19.3,0000.0,0008.97,0003.35,0002.58
2021-10-09 05:08:00,,0823.2,4.99,0.00,29.8,28.8,00.0,38.8,31.6,19.3,0000.0,0008.93,0003.35,0002.61
2021-10-09 05:09:00,,0823.3,5.00,0.00,29.8,28.9,00.0,38.8,31.5,19.2,0000.0,0008.52,0003.35,0002.64
2021-10-09 05:10:00,,0823.2,5.00,0.00,29.8,28.9,00.0,38.8,31.6,19.2,0000.0,0008.55,0003.37,0002.67
2021-10-09 05:11:00,,0823.1,4.99,0.00,29.8,28.9,00.0,38.8,31.6,19.3,0000.0,0008.11,0003.40,0002.68
2021-10-09 05:12:00,,0823.1,5.00,0.00,29.8,29.0,00.0,38.9,31.6,19.2,0000.0,0007.78,0003.39,0002.68
2021-10-09 05:13:00,,0823.1,5.00,0.00,29.9,29.0,00.0,38.9,31.7,19.0,0000.0,0008.06,0003.38,0002.66
2021-10-09 05:14:00,,0823.1,5.00,0.00,29.9,29.0,00.0,38.9,31.7,18.9,0000.0,0008.02,0003.41,0002.66
2021-10-09 05:15:00,,0823.1,5.00,0.00,29.9,29.1,00.0,38.9,31.7,18.9,0000.0,0007.82,0003.44,0002.65
2021-10-09 05:16:00,,0823.2,5.00,0.00,29.9,29.1,00.0,38.9,31.7,18.9,0000.0,0008.23,0003.44,0002.63
2021-10-09 05:17:00,,0823.2,5.00,0.00,29.9,29.1,00.0,38.9,31.8,18.8,0000.0,0008.51,0003.42,0002.60
2021-10-09 05:18:00,,0823.2,5.01,0.00,30.0,29.1,00.0,39.0,31.7,18.7,0000.0,0009.27,0003.43,0002.59
2021-10-09 05:19:00,,0823.2,5.01,0.00,30.0,29.1,00.0,39.0,31.8,18.7,0000.0,0009.78,0003.40,0002.56
2021-10-09 05:20:00,,0823.2,4.99,0.00,30.0,29.1,00.0,39.0,31.8,18.6,0000.0,0009.92,0003.41,0002.55
2021-10-09 05:21:00,,0823.2,5.00,0.00,30.0,29.2,00.0,39.0,31.8,18.6,0000.0,0011.02,0003.39,0002.54
2021-10-09 05:22:00,,0823.1,5.01,0.00,30.0,29.2,00.0,39.0,31.8,18.5,0000.0,0011.40,0003.37,0002.53
2021-10-09 05:23:00,,0823.1,4.99,0.00,30.0,29.2,00.0,39.1,31.8,18.4,0000.0,0011.05,0003.33,0002.51
2021-10-09 05:24:00,,0823.1,4.99,0.00,30.1,29.3,00.0,39.1,31.9,18.3,0000.0,0010.64,0003.31,0002.50
2021-10-09 05:25:00,,0823.1,5.00,0.00,30.1,29.3,00.0,39.1,31.9,18.3,0000.0,0010.67,0003.25,0002.48
2021-10-09 05:26:00,,0823.1,5.00,0.00,30.1,29.3,00.0,39.1,31.9,18.4,0000.0,0010.64,0003.23,0002.47
2021-10-09 05:27:00,,0823.1,5.00,0.00,30.1,29.3,00.0,39.1,31.9,18.4,0000.0,0010.12,0003.21,0002.47
2021-10-09 05:28:00,,0823.1,4.99,0.00,30.1,29.3,00.0,39.1,31.9,18.7,0000.0,0009.76,0003.17,0002.47
2021-10-09 05:29:00,,0823.1,5.00,0.00,30.1,29.3,00.0,39.1,32.0,18.9,0000.0,0008.97,0003.14,0002.46
2021-10-09 05:30:00,,0823.0,5.00,0.00,30.2,29.3,00.0,39.2,32.0,19.3,0000.0,0008.72,0003.17,0002.46
2021-10-09 05:31:00,,0823.1,5.00,0.00,30.2,29.4,00.0,39.2,32.0,19.4,0000.0,0008.91,0003.21,0002.45
2021-10-09 05:32:00,,0823.0,5.01,0.00,30.2,29.4,00.0,39.2,32.0,19.5,0000.0,0007.99,0003.22,0002.44
2021-10-09 05:33:00,,0822.9,5.00,0.00,30.2,29.4,00.0,39.2,32.0,19.5,0000.0,0007.43,0003.24,0002.45
2021-10-09 05:34:00,,0823.0,4.99,0.00,30.2,29.4,00.0,39.2,32.0,19.7,0000.0,0007.46,0003.25,0002.45
2021-10-09 05:35:00,,0822.9,5.00,0.00,30.2,29.5,00.0,39.2,32.0,19.8,0000.0,0007.45,0003.27,0002.44
2021-10-09 05:36:00,,0822.8,4.99,0.00,30.2,29.5,00.0,39.3,32.0,19.9,0000.0,0007.10,0003.29,0002.43
2021-10-09 05:37:00,,0822.7,5.00,0.00,30.2,29.5,00.0,39.3,32.0,20.0,0000.0,0007.06,0003.27,0002.41
2021-10-09 05:38:00,,0822.8,5.00,0.00,30.2,29.5,00.0,39.3,32.0,19.9,0000.0,0007.48,0003.28,0002.39
2021-10-09 05:39:00,,0822.7,5.00,0.00,30.3,29.5,00.0,39.3,32.0,19.8,0000.0,0007.60,0003.30,0002.38
2021-10-09 05:40:00,,0822.7,5.00,0.00,30.3,29.5,00.0,39.3,32.1,20.0,0000.0,0007.51,0003.28,0002.37
2021-10-09 05:41:00,,0822.6,4.99,0.00,30.3,29.6,00.0,39.3,32.1,20.0,0000.0,0006.84,0003.25,0002.37
2021-10-09 05:42:00,,0822.6,5.01,0.00,30.3,29.6,00.0,39.4,32.1,20.0,0000.0,0006.13,0003.19,0002.35
2021-10-09 05:43:00,,0822.6,4.99,0.00,30.3,29.6,00.0,39.4,32.1,20.0,0000.0,0006.17,0003.17,0002.33
2021-10-09 05:44:00,,0822.6,5.02,0.00,30.3,29.6,00.0,39.4,32.1,20.0,0000.0,0006.72,0003.13,0002.31
2021-10-09 05:45:00,,0822.6,4.99,0.00,30.4,29.6,00.0,39.4,32.1,20.0,0000.0,0006.72,0003.12,0002.28
2021-10-09 05:46:00,,0822.6,5.01,0.00,30.4,29.6,00.0,39.4,32.1,19.9,0000.0,0007.48,0003.16,0002.28
2021-10-09 05:47:00,,0822.6,5.00,0.00,30.4,29.6,00.0,39.4,32.1,19.9,0000.0,0007.45,0003.14,0002.27
2021-10-09 05:48:00,,0822.6,5.00,0.00,30.4,29.6,00.0,39.4,32.1,19.9,0000.0,0007.45,0003.14,0002.26
2021-10-09 05:49:00,,0822.6,4.99,0.00,30.4,29.6,00.0,39.4,32.1,19.9,0000.0,0007.82,0003.13,0002.26
2021-10-09 05:50:00,,0822.6,5.00,0.00,30.4,29.6,00.0,39.5,32.1,19.9,0000.0,0007.86,0003.13,0002.26
2021-10-09 05:51:00,,0822.7,5.01,0.00,30.4,29.6,00.0,39.5,32.1,19.9,0000.0,0007.99,0003.16,0002.26
2021-10-09 05:52:00,,0822.7,5.02,0.00,30.4,29.5,00.0,39.5,32.1,19.9,0000.0,0007.97,0003.16,0002.25
2021-10-09 05:53:00,,0822.7,4.99,0.00,30.3,27.5,00.0,39.5,31.7,20.0,0000.0,0008.17,0003.18,0002.25
2021-10-09 05:54:00,,0822.7,5.00,0.00,30.1,26.4,00.0,39.4,31.3,20.2,0000.0,0008.16,0003.18,0002.26
2021-10-09 05:55:00,,0822.7,5.01,0.00,30.0,26.5,00.0,39.4,31.3,20.3,0000.0,0007.69,0003.19,0002.27
2021-10-09 05:56:00,,0822.7,4.99,0.00,29.9,26.9,00.0,39.3,31.3,20.4,0000.0,0008.18,0003.20,0002.26
2021-10-09 05:57:00,,0822.7,5.00,0.00,29.8,27.3,00.0,39.2,31.3,20.5,0000.0,0009.13,0003.17,0002.27
2021-10-09 05:58:00,,0822.7,5.00,0.00,29.8,27.6,00.0,39.2,31.4,20.6,0000.0,0009.22,0003.17,0002.28
2021-10-09 05:59:00,,0822.7,5.00,0.00,29.8,27.9,00.0,39.1,31.4,20.6,0000.0,0009.29,0003.16,0002.27
